Tracking 27422 objects as of 30-May-2023
HD Live streaming from Space Station
objects crossing your sky now

OBJECT E

Track OBJECT E now!
10-day predictions
OBJECT E is classified as:


NORAD ID: 53109
Int'l Code: 2022-080E
Perigee: 5,839.9 km
Apogee: 5,860.6 km
Inclination: 70.1 °
Period: 224.1 minutes
Semi major axis: 12221 km
RCS: Unknown
Launch date: July 13, 2022
Source: (TBD)
Launch site: FRENCH GUIANA (FRGUI)

Uplink (MHz):
Downlink (MHz): 436.750
Beacon (MHz):
Mode: 1k2AFSK 2k4/9k6GMSK
Call sign: FX6FRA
Status: Inactive

Your satellite tracking list
Your tracking list is empty




NASA's NSSDC Master Catalog

Two Line Element Set (TLE):
1 53109U 22080E   23150.45133229 -.00000003  00000-0  00000-0 0  9994
2 53109  70.1470 325.5976 0008467 171.6219 188.4583  6.42583913 20503
Source of the keplerian elements: AFSPC